Estación Meteorológica de la Universidad de Murcia
Estación Meteorológica de la Universidad de Murcia
Universidad de Murcia
 

Temperatura ambienteTemperatura ambiente

 

Máxima: 33,8 ºC a las 15:43:00 del día 22/06/2018
Mínima: 18,7 ºC a las 07:01:00 del día 22/06/2018

||Temperatura máxima últimos meses|| ---- ||Temperatura mínima últimos meses||


Temperatura máxima

  • 1 - 33,8 ºC del día 22/06/2018
  • 2 - 32,3 ºC del día 21/06/2018
  • 3 - 31,4 ºC del día 20/06/2018
  • 4 - 30 ºC del día 19/06/2018
  • 5 - 31,1 ºC del día 18/06/2018
  • 6 - 31,6 ºC del día 17/06/2018
  • 7 - 31,7 ºC del día 16/06/2018
  • 8 - 31,7 ºC del día 15/06/2018
  • 9 - 30,6 ºC del día 14/06/2018
  • 10 - 31,7 ºC del día 13/06/2018
  • 11 - 31 ºC del día 12/06/2018
  • 12 - 29,3 ºC del día 11/06/2018
  • 13 - 29,2 ºC del día 10/06/2018
  • 14 - 28,8 ºC del día 09/06/2018
  • 15 - 29,6 ºC del día 08/06/2018
  • 16 - 28,3 ºC del día 07/06/2018
  • 17 - 25,6 ºC del día 06/06/2018
  • 18 - 25,7 ºC del día 05/06/2018
  • 19 - 30 ºC del día 04/06/2018
  • 20 - 28,1 ºC del día 03/06/2018
  • 21 - 24,8 ºC del día 02/06/2018
  • 22 - 28,2 ºC del día 01/06/2018
  • 23 - 29,5 ºC del día 31/05/2018
  • 24 - 26,8 ºC del día 30/05/2018
  • 25 - 26,8 ºC del día 29/05/2018
  • 26 - 28,8 ºC del día 28/05/2018
  • 27 - 26,6 ºC del día 27/05/2018
  • 28 - 27,1 ºC del día 26/05/2018
  • 29 - 29,9 ºC del día 25/05/2018
  • 30 - 28,1 ºC del día 24/05/2018
  • 31 - 28,8 ºC del día 23/05/2018
  • 32 - 30 ºC del día 22/05/2018
  • 33 - 27 ºC del día 21/05/2018
  • 34 - 25,8 ºC del día 20/05/2018
  • 35 - 25,3 ºC del día 19/05/2018
  • 36 - 25,5 ºC del día 18/05/2018
  • 37 - 23,6 ºC del día 17/05/2018
  • 38 - 25 ºC del día 16/05/2018
  • 39 - 23,9 ºC del día 15/05/2018
  • 40 - 25 ºC del día 14/05/2018
  • 41 - 24,2 ºC del día 13/05/2018
  • 42 - 28,3 ºC del día 12/05/2018
  • 43 - 26,9 ºC del día 11/05/2018
  • 44 - 23,8 ºC del día 10/05/2018
  • 45 - 29,4 ºC del día 09/05/2018
  • 46 - 28,3 ºC del día 08/05/2018
  • 47 - 25,5 ºC del día 07/05/2018
  • 48 - 25,5 ºC del día 06/05/2018
  • 49 - 25,9 ºC del día 05/05/2018
  • 50 - 23,1 ºC del día 04/05/2018
  • 51 - 25,9 ºC del día 03/05/2018
  • 52 - 23,7 ºC del día 02/05/2018
  • 53 - 20,4 ºC del día 01/05/2018
  • 54 - 20,9 ºC del día 30/04/2018
  • 55 - 21,9 ºC del día 29/04/2018
  • 56 - 25,2 ºC del día 28/04/2018
  • 57 - 29,9 ºC del día 27/04/2018
  • 58 - 22,7 ºC del día 26/04/2018
  • 59 - 19,5 ºC del día 25/04/2018
  • 60 - 26,7 ºC del día 24/04/2018

||Volver al inicio de la página||


Temperatura mínima

  • 1 - 18,7 ºC del día 22/06/2018
  • 2 - 19 ºC del día 21/06/2018
  • 3 - 18,3 ºC del día 20/06/2018
  • 4 - 18,3 ºC del día 19/06/2018
  • 5 - 18,5 ºC del día 18/06/2018
  • 6 - 19 ºC del día 17/06/2018
  • 7 - 18,7 ºC del día 16/06/2018
  • 8 - 17,3 ºC del día 15/06/2018
  • 9 - 17,3 ºC del día 14/06/2018
  • 10 - 19,7 ºC del día 13/06/2018
  • 11 - 18,3 ºC del día 12/06/2018
  • 12 - 18,3 ºC del día 11/06/2018
  • 13 - 17,9 ºC del día 10/06/2018
  • 14 - 16,9 ºC del día 09/06/2018
  • 15 - 17,2 ºC del día 08/06/2018
  • 16 - 13,4 ºC del día 07/06/2018
  • 17 - 14,9 ºC del día 06/06/2018
  • 18 - 18,8 ºC del día 05/06/2018
  • 19 - 17,1 ºC del día 04/06/2018
  • 20 - 14,5 ºC del día 03/06/2018
  • 21 - 16,1 ºC del día 02/06/2018
  • 22 - 17,4 ºC del día 01/06/2018
  • 23 - 15,7 ºC del día 31/05/2018
  • 24 - 17 ºC del día 30/05/2018
  • 25 - 17,3 ºC del día 29/05/2018
  • 26 - 16,1 ºC del día 28/05/2018
  • 27 - 16,7 ºC del día 27/05/2018
  • 28 - 16,8 ºC del día 26/05/2018
  • 29 - 18,7 ºC del día 25/05/2018
  • 30 - 15,8 ºC del día 24/05/2018
  • 31 - 15,7 ºC del día 23/05/2018
  • 32 - 15,3 ºC del día 22/05/2018
  • 33 - 13,6 ºC del día 21/05/2018
  • 34 - 13,4 ºC del día 20/05/2018
  • 35 - 13,3 ºC del día 19/05/2018
  • 36 - 12,9 ºC del día 18/05/2018
  • 37 - 13,3 ºC del día 17/05/2018
  • 38 - 12,5 ºC del día 16/05/2018
  • 39 - 12,3 ºC del día 15/05/2018
  • 40 - 11,2 ºC del día 14/05/2018
  • 41 - 14,7 ºC del día 13/05/2018
  • 42 - 15,3 ºC del día 12/05/2018
  • 43 - 15,1 ºC del día 11/05/2018
  • 44 - 16,4 ºC del día 10/05/2018
  • 45 - 15,7 ºC del día 09/05/2018
  • 46 - 13,8 ºC del día 08/05/2018
  • 47 - 12,9 ºC del día 07/05/2018
  • 48 - 13,5 ºC del día 06/05/2018
  • 49 - 14,4 ºC del día 05/05/2018
  • 50 - 13,5 ºC del día 04/05/2018
  • 51 - 16 ºC del día 03/05/2018
  • 52 - 8,5 ºC del día 02/05/2018
  • 53 - 8,5 ºC del día 01/05/2018
  • 54 - 10,2 ºC del día 30/04/2018
  • 55 - 12,9 ºC del día 29/04/2018
  • 56 - 14,8 ºC del día 28/04/2018
  • 57 - 13,3 ºC del día 27/04/2018
  • 58 - 15,7 ºC del día 26/04/2018
  • 59 - 16,4 ºC del día 25/04/2018
  • 60 - 16,6 ºC del día 24/04/2018

 

|| Humedad relativa|| Velocidad y dirección del viento|| Precipitación|| Radiación Solar Global y PAR|| Temperatura y humedad del suelo|| Presión atmosférica|| Más información|| Volver a la página principal|| Volver al inicio de la página||


Estación Meteorológica de la Universidad de Murcia
http://estacion.um.es/
Informacion actualizada a: 23/06/2018 a las 23:04:00